SL-16 DEB, 23707

Orbit data source: Space-Track

SL-16 DEB, 23707 is space debris in LEO originally from a launch on Tue, 31 Oct 1995 UTC launched from the Tyuratam Missile And Space Complex (TTMTR). Debris objects in space refer to the collection of defunct objects orbiting the Earth. Examples of debris include non-operational satellites, rocket bodies, and fragments generated from explosions, collisions, or faulty payload assembly.

Loading next visibility...
Identifier
23707, 1995-058D
Orbit
LEO
Last TLE update
14 hours ago
Origin
Manufacturer
Yuzhnoe
Mission
Spacecraft
Bus & Motor
SEP MOTOR COVER, Unknown motor
Mass
~0 kg wet, ~1 kg dry
Launch date (UTC)
1995-10-31 (30 years ago)
Launch vehicle
Unknown
Launch site
Tyuratam Missile And Space Complex (TTMTR)
Object type
Payload
Rocket body
Debris
Shape & HBR
Unknown
Radar Cross Section
Small (<0.1 m²)

Expand to show TLE details & history

TLE from 14 hours ago
0 SL-16 DEB
1 23707U 95058D   25186.74278214  .00000033  00000-0  72497-4 0  9992
2 23707  70.9952  91.7374 0206879 249.9473 139.4388 13.72431959485832
Epoch: 2025-07-05T17:49Z
TLE epoch observation values (Epoch: 2025-07-05T17:49:36.376Z)
Latitude
29.10042°
Longitude
-88.6453°
Altitude
1,111.047 km
Speed
7.241 km/s
True Right ascension
06h 50m 55s
True Declination
28° 57' 41"
Sunlit
Object was in daylight at epoch
Visualization orbit readout
Latitude
49.86709°
Longitude
55.19749°
Altitude
1,078.868 km
Speed
7.277 km/s
Apparent Right ascension
12h 17m 26s
Apparent Declination
19° 00' 53"
Sunlit
Object is in daylight
Visualization observer readout
Local Sidereal Time
20:15:50
Azimuth
303.762° NW
Elevation
-8.575°
Doppler factor
1
Orbital elements
Apogee altitude
1,141.226 km
Perigee altitude
836.412 km
Semi-major axis
7,366.956 km
Eccentricity
0.02069
Inclination
70.9952°
RAAN
91.7374°
Arg. of periapsis
249.9473°
True anomaly
Unknown
Mean anomaly
139.4388°
Eccentric anomaly
Unknown
Mean motion
3.4325 °/min
Orbital period
104.88 mins
BSTAR
0.000072497
Loading maneuver chart data...
Loading SW <> Apogee altitude chart data...
Loading historical data...
Loading historical data...
Loading historical data...
Loading historical data...
Loading historical data...
Loading historical data...
Loading historical data...

SL-16 DEB Visibility forecast

Observer location: undefined°, undefined°

Span
Click to sort rows by Start time (UTC) header in descending order
Start Az.
Max El. time (UTC)
Max El. Az.
Max El.
End time (UTC)
End Az.
12 mins2025-07-06 18:16:01.872Z171.748° S2025-07-06 18:22:01.872Z97.673° ESE35.326°2025-07-06 18:28:01.872Z36.343° NE
11 mins2025-07-06 20:04:01.872Z243.761° WSW2025-07-06 20:09:01.872Z299.818° NW30.543°2025-07-06 20:15:01.872Z5.554° NNE
10 mins2025-07-07 03:29:01.872Z1.445° NNE2025-07-07 03:34:01.872Z58.744° ENE26.235°2025-07-07 03:39:01.872Z111.481° ESE
11 mins2025-07-07 05:16:01.872Z324.273° NNW2025-07-07 05:21:01.872Z265.281° W37.938°2025-07-07 05:27:01.872Z181.363° SSW
|